Home   Weather   Township of Greenwich   Past weeks
Flag for USA

Past Weather in Township of Greenwich, New Jersey, USA — Yesterday and Last 2 Weeks

Now
70 °F

Light rain. Scattered clouds.


Feels Like: 67 °F
Forecast: 76 / 70 °F
Wind: 7 mph from West

Location: Dover Air Force Base

Current Time: Jul 23, 2019 at 9:28:42 am

Latest Report: Jul 23, 2019 at 8:56 am


Visibility: 10 mi

Pressure: 29.87 "Hg

Humidity: 90%

Dew Point: 67 °F

Location of Township of GreenwichLocation

Past Weather in Township of Greenwich — Graph

°F

Township of Greenwich Temperature Yesterday

Maximum temperature yesterday: 97 °F (at 3:15 pm)
Minimum temperature yesterday: 77 °F (at 5:56 am)
Average temperature yesterday: 86 °F

High & Low Weather Summary for the Past Weeks

 TemperatureHumidityPressure
High98 °F (Jul 21, 1:56 pm)100% (Jul 11, 10:18 pm)30.11 "Hg (Jul 11, 10:18 pm)
Low65 °F (Jul 9, 5:56 am)40% (Jul 15, 4:56 pm)29.72 "Hg (Jul 22, 4:56 pm)
Average81 °F72%29.92 "Hg
* Reported Jul 8 8:36 am — Jul 23 8:12 am, Township of Greenwich. Weather by CustomWeather, © 2019

Note: Actual official high and low records may vary slightly from our data, if they occured in-between our weather recording intervals... More about our weather records

Advertising

Township of Greenwich Weather History for the Previous 24 Hours

Scroll right to see more
 ConditionsComfort  
Time TempWeatherWind HumidityBarometerVisibility
8:12 am
Tue, Jul 23
70 °FLight rain. Broken clouds.9 mph88%29.86 "Hg10 mi
7:56 am70 °FMostly cloudy.9 mph87%29.86 "Hg10 mi
7:30 am70 °FOvercast.10 mph94%29.86 "Hg10 mi
6:56 am70 °FLight rain. Overcast.9 mph89%29.84 "Hg10 mi
6:43 am70 °FLight rain. Overcast.10 mph88%29.82 "Hg10 mi
6:11 am72 °FMostly cloudy.13 mph88%29.81 "Hg10 mi
5:56 am71 °FDrizzle. Mostly cloudy.13 mph90%29.80 "Hg10 mi
5:33 am72 °FMostly cloudy.14 mph88%29.78 "Hg10 mi
4:56 am75 °FOvercast.20 mph90%29.73 "Hg10 mi
4:36 am75 °FPassing clouds.16 mph89%29.72 "Hg10 mi
3:56 am74 °FPartly cloudy.14 mph91%29.72 "Hg10 mi
3:24 am73 °FPassing clouds.9 mph94%29.73 "Hg10 mi
3:03 am73 °FPartly cloudy.7 mph94%29.74 "Hg10 mi
2:56 am74 °FPassing clouds.8 mph93%29.74 "Hg10 mi
2:31 am73 °FPartly cloudy.8 mph94%29.75 "Hg10 mi
2:09 am73 °FRain. Partly cloudy.12 mph94%29.78 "Hg10 mi
1:56 am75 °FHeavy rain. Fog.20 mph88%29.79 "Hg10 mi
1:25 am79 °FLight rain. Passing clouds.16 mph70%29.79 "Hg10 mi
1:08 am79 °FPartly cloudy.15 mph70%29.78 "Hg10 mi
12:56 am80 °FPartly cloudy.14 mph68%29.79 "Hg10 mi
11:56 pm
Mon, Jul 22
79 °FPassing clouds.7 mph74%29.78 "Hg10 mi
10:56 pm78 °FPassing clouds.6 mph82%29.79 "Hg10 mi
9:56 pm79 °FClear.7 mph77%29.79 "Hg10 mi
8:56 pm80 °FClear.3 mph71%29.79 "Hg10 mi
7:56 pm81 °FSunny.8 mph67%29.78 "Hg10 mi
7:18 pm82 °FPartly sunny.9 mph62%29.77 "Hg10 mi
6:57 pm82 °FThundershowers. Scattered clouds.6 mph66%29.78 "Hg10 mi
6:21 pm84 °FThunderstorms. Scattered clouds.18 mph62%29.73 "Hg10 mi
6:03 pm90 °FBroken clouds.15 mph59%29.74 "Hg10 mi
5:55 pm90 °FThundershowers. Broken clouds.16 mph57%29.73 "Hg10 mi
4:56 pm93 °FPassing clouds.17 mph52%29.72 "Hg10 mi
3:56 pm96 °FPassing clouds.16 mph45%29.74 "Hg10 mi
3:15 pm97 °FSunny.18 mph44%29.76 "Hg10 mi
2:56 pm96 °FPassing clouds.17 mph47%29.76 "Hg10 mi
1:56 pm95 °FScattered clouds.17 mph50%29.78 "Hg10 mi
12:56 pm96 °FPassing clouds.18 mph46%29.80 "Hg10 mi
12:33 pm95 °FSunny.14 mph47%29.81 "Hg10 mi
11:56 am93 °FSunny.12 mph52%29.82 "Hg10 mi
10:56 am90 °FSunny.14 mph56%29.84 "Hg10 mi
9:56 am88 °FSunny.7 mph61%29.85 "Hg10 mi
Weather by CustomWeather, © 2019

See weather overview